Regional Weather Roundup
Issued by NWS

Home | Current Version | Previous Version | Graphics & Text | Print | Product List | Glossary On
Versions: 1 2 3 4 5 6 7 8 9 10 11 12 13 14 15 16 17 18 19 20 21 22 23 24 25 26 27 28 29 30 31 32 33 34 35 36 37 38 39 40 41 42 43 44 45 46 47 48 49 50
000
ASUS43 KDTX 270101
RWRMI
MICHIGAN HOURLY REGIONAL WEATHER ROUNDUP
NATIONAL WEATHER SERVICE DETROIT/PONTIAC MI
900 PM EDT THU MAR 26 2015

NOTE: "FAIR" INDICATES FEW OR NO CLOUDS BELOW 12,000 FEET WITH NO
SIGNIFICANT WEATHER AND/OR OBSTRUCTION TO VISIBILITY.

MIZ047>049-052>055-059>063-066>070-074>076-081>083-270200-
SOUTHEAST LOWER MICHIGAN

CITY           SKY/WX    TMP DP  RH WIND       PRES   REMARKS
ADRIAN         CLOUDY    37  22  54 NW10      29.94R WCI  30
ALMA           CLOUDY    32  23  67 NW12G17   29.95R WCI  23
ANN ARBOR      CLOUDY    37  23  56 NW14      29.92R WCI  28
BAD AXE        CLOUDY    32  24  73 NW13G20   29.90R WCI  22
CARO           CLOUDY    32  26  80 NW10      29.91R WCI  24
DETROIT CITY   CLOUDY    41  23  48 NW10      29.90R
DETROIT        CLOUDY    39  24  55 W8        29.91R WCI  33
FLINT          CLOUDY    36  25  64 W13       29.92R WCI  27
GROSSE ILE     CLOUDY    39  25  56 NW9       29.90R WCI  33
HILLSDALE      CLOUDY    35  22  59 NW14G21   29.93R WCI  26
HOWELL         CLOUDY    35  25  68 NW10      29.91R WCI  27

CITY           SKY/WX    TMP DP  RH WIND       PRES   REMARKS
JACKSON        CLOUDY    35  23  61 NW13G18   29.93R WCI  26
LAMBERTVILLE   CLOUDY    37  27  65 NW8       29.94R WCI  31
LANSING        CLOUDY    34  24  67 NW13      29.94R WCI  25
LAPEER         CLOUDY    36  25  64 W7        29.90R WCI  30
MASON          CLOUDY    33  23  66 NW10G17   29.93R WCI  25
MONROE         CLOUDY    39  25  56 W10       29.91R WCI  32
MT. CLEMENS    CLOUDY    38  25  59 NW14G21   29.88R WCI  30
PONTIAC        CLOUDY    36  24  62 NW10      29.89R WCI  28
PORT HOPE        N/A     33  26  75 NW15      29.87R WCI  23
PORT HURON     CLOUDY    37  27  65 NW6       29.89R WCI  33
TRI CITIES     CLOUDY    32  23  69 NW16G26   29.94R WCI  21
TROY           CLOUDY    38  24  57 NW9       29.92R WCI  32
SAGINAW HB     CLOUDY    32  27  80 NW18      29.93R WCI  20
$$
MIZ043>046-050>051-056>058-064>065-071>073-077>080-270200-
SOUTHWEST LOWER MICHIGAN

CITY           SKY/WX    TMP DP  RH WIND       PRES   REMARKS
BATTLE CREEK   CLOUDY    34  23  64 NW10      29.96R WCI  26
BENTON HARBOR  CLOUDY    32  27  81 VRB3      30.00S
BIG RAPIDS     CLOUDY    28  19  69 NW9       29.97R WCI  19
COLDWATER      CLOUDY    34  23  64 NW9G17    29.95R WCI  27
FREMONT        CLOUDY    29  21  71 N12G20    29.99R WCI  19
HOLLAND        CLOUDY    33  25  72 NW10      30.00R WCI  25
GRAND RAPIDS   FLURRIES  32  24  72 NW15      29.97R WCI  22
IONIA          CLOUDY    33  25  73 NW10      29.94R WCI  25
KALAMAZOO      CLOUDY    33  24  69 NW13      29.97R WCI  24
LUDINGTON      LGT SNOW  26  20  80 N9        30.04R WCI  16
MARSHALL       CLOUDY    33  23  66 NW10      29.94S WCI  25
MOUNT PLEASANT CLOUDY    30  18  62 NW8       29.96R WCI  22
MUSKEGON       CLOUDY    31  22  69 NW13      30.01R WCI  21
SOUTH HAVEN    CLOUDY    33  27  80 N9        29.99S WCI  25
$$
MIZ016>042-270200-
NORTHERN LOWER MICHIGAN

CITY           SKY/WX    TMP DP  RH WIND       PRES   REMARKS
ALPENA         CLOUDY    28  19  69 NW15G25   29.92R WCI  16
BEAVER ISLAND  CLOUDY    19  12  74 NW13G22   30.04R WCI   6
BELLAIRE       LGT SNOW  21  16  81 NW6       30.04R WCI  13
CADILLAC       LGT SNOW  22  16  79 N12G17    29.96R WCI  10
CHARLEVOIX     LGT SNOW  20  16  83 NW16G25   30.06R WCI   6
FRANKFORT      FLURRIES  26  14  61 N14G21    30.06R WCI  14
GAYLORD        LGT SNOW  18  14  84 VRB7      29.94R FOG     WCI   9
GRAYLING       CLOUDY    20  13  72 W14G26    29.96R WCI   7
HARBOR SPRINGS LGT SNOW  21  16  83 W10G17    30.00R WCI  10
HOUGHTON LAKE  CLOUDY    21  13  71 NW18G26   29.95R WCI   6
MANISTEE       PTCLDY    25  14  63 N10G21    30.05R WCI  15
OSCODA         CLOUDY    31  22  67 NW13G21   29.89R WCI  22
PELLSTON       LGT SNOW  21  17  84 NW15G21   29.99R FOG     WCI   8
ROGERS CITY    LGT SNOW  24  21  87 NW17G23   29.94R WCI  11
TRAVERSE CITY  LGT SNOW  22  16  78 N13       30.03S WCI  10
$$
MIZ007>008-015-270200-
EASTERN UPPER MICHIGAN

CITY           SKY/WX    TMP DP  RH WIND       PRES   REMARKS
KINROSS        CLOUDY    19  19 100 NW17      29.93R WCI   4
MACKINAC ISLAN LGT SNOW  22  15  75 NW15G25   29.97R WCI   8
NEWBERRY       LGT SNOW  17  15  91 NW9G21    30.01R WCI   5
S. S. MARIE    CLOUDY    23  14  68 N10G18    29.94R WCI  12
$$
MIZ004>006-011>014-085-270200-
CENTRAL UPPER MICHIGAN

CITY           SKY/WX    TMP DP  RH WIND       PRES   REMARKS
MANISTIQUE     FLURRIES  18  13  80 N12G21    30.06R WCI   6
ESCANABA       CLOUDY    21   9  58 NW17G25   30.10R WCI   7
MENOMINEE      CLOUDY    25  10  54 N13G18    30.09R WCI  13
SAWYER-GWINN   PTCLDY    16   5  62 N17       30.06R WCI   0
$$
MIZ001>003-009>011-084-270200-
WESTERN UPPER MICHIGAN

CITY           SKY/WX    TMP DP  RH WIND       PRES   REMARKS
IRON MOUNTAIN  PTCLDY    18   5  57 N16       30.08R WCI   3
HOUGHTON       CLEAR     14   6  70 N6        30.11R WCI   5
COPPER HARBOR    N/A     17   5  59 NE14      30.13R WCI   3
IRONWOOD       CLOUDY    21   7  53 N5        30.10R WCI  15
$$

ABBREVIATIONS USED IN REMARKS
   TC - TEMPERATURE IN CELSIUS
  WCI - WIND CHILL INDEX
   HX - HEAT INDEX
  VSB - VISIBILITY



USA.gov is the U.S. government's official web portal to all federal, state and local government web resources and services.